#timestamp,LO_Frequency,Hit,StdDev 
1512637215.3,286047016.4,N
1512637235.1,286047023.1,Y
1512637255.8,286047019.7,P
1512637275.7,286047020.3,P
1512637295.5,286047019.1,P
1512637315.3,286047017.6,Y
1512637335.2,286047002.1,P
1512637355.0,286047001.2,N
1512637355.9,286047001.2,N
1512637375.7,286046998.6,N
1512637395.6,286046998.0,N
1512637415.4,286046994.9,N
1512637435.2,286046993.3,N
1512637455.1,286046995.0,N
1512637456.0,286046995.0,N
1512637475.8,286046996.0,N
1512637495.6,286046990.7,N
1512637515.5,286046993.0,N
1512637535.3,286046992.3,N
1512637555.1,286046990.1,N
1512637575.8,286046994.0,N
1512637595.7,286046997.4,N
1512637615.5,286046998.9,N
1512637635.3,286046995.8,N
1512637655.2,286046996.2,N
1512637675.9,286046995.2,N
1512637695.7,286046995.2,N
1512637715.6,286046994.5,N
1512637735.4,286046990.6,N
1512637755.2,286046987.7,N
1512637775.1,286046985.5,N
1512637776.0,286046985.5,N
1512637795.8,286046987.9,N
1512637815.6,286046986.9,N
1512637835.5,286046986.3,N
1512637855.3,286046984.0,N
1512637875.1,286046983.1,Y
1512637895.9,286046989.2,P
1512637915.7,286046989.1,P
1512637935.5,286046993.2,P
1512637955.4,286046987.3,Y
1512637975.2,286046997.8,P
1512637995.0,286046997.4,N
1512637995.9,286046997.4,N
1512638015.7,286046995.7,N
1512638035.6,286046996.1,N
1512638055.4,286046998.0,N
1512638075.2,286046994.4,N
1512638095.1,286046992.8,Y
1512638096.0,286046992.8,P
1512638115.8,286046996.3,N
1512638135.6,286046997.9,N
1512638155.5,286046996.3,N
1512638175.3,286046992.1,Y
1512638195.1,286046996.7,P
1512638215.9,286047000.8,N
1512638235.7,286047000.5,N
1512638255.5,286046998.5,N
1512638275.4,286047000.0,N
1512638295.2,286046999.0,N
1512638315.0,286046996.6,N
1512638315.9,286046996.6,N
1512638335.8,286046995.5,N
1512638355.6,286046998.4,N
1512638375.4,286046998.9,N
1512638395.3,286047000.8,N
1512638415.1,286046999.0,N
1512638416.0,286046999.0,N
1512638435.8,286046999.7,N
1512638455.7,286047000.2,N
1512638475.5,286046998.2,N
1512638495.3,286046998.6,N
1512638515.1,286046999.8,N
1512638535.9,286046998.2,N
1512638555.7,286046998.6,N
1512638575.5,286046998.2,N
1512638595.4,286047001.0,N
1512638615.2,286046998.5,N
1512638635.0,286046997.1,N
1512638635.9,286046997.1,N
1512638655.8,286046998.9,N
1512638675.6,286047001.0,N
1512638695.4,286047000.8,N
1512638715.3,286047000.7,N
1512638735.1,286047002.7,N
1512638736.0,286047002.7,N
1512638755.8,286046998.5,N
1512638775.7,286047002.5,N
1512638795.5,286047003.2,N
1512638815.3,286047001.4,N
1512638835.2,286047002.8,N
1512638855.9,286047000.7,N
1512638875.7,286046999.6,N
1512638895.5,286047000.9,N
1512638915.4,286047001.2,N
1512638935.2,286047000.7,N
1512638955.0,286047002.6,N
1512638955.9,286047002.6,N
1512638975.8,286047001.0,N
1512638995.6,286047000.9,N
1512639015.4,286047005.1,N
1512639035.3,286047009.1,Y
1512639055.1,286047007.1,P
1512639075.8,286047003.5,N
1512639095.7,286047005.2,N
1512639115.5,286047003.3,N
1512639135.3,286047002.8,N
1512639155.2,286047003.3,N
1512639175.9,286047005.9,Y
1512639195.7,286046998.6,P
1512639215.6,286046998.5,N
1512639235.4,286047000.5,N
1512639255.2,286047001.9,N
1512639275.1,286047003.9,N
1512639276.0,286047003.9,N
1512639295.8,286047006.9,Y
1512639315.6,286047006.2,P
1512639335.5,286047007.5,P
1512639355.3,286047004.6,N
1512639375.1,286047007.6,Y
1512639395.9,286046996.6,P
1512639415.7,286046994.9,N
1512639435.5,286046995.3,N
1512639455.3,286046999.4,N
1512639475.2,286047000.3,N
1512639495.0,286047000.7,N
1512639495.9,286047000.7,N
1512639515.7,286046999.3,N
1512639535.6,286046996.8,N
1512639555.4,286046996.9,N
1512639575.2,286046996.7,N
1512639595.1,286047001.1,N
1512639596.0,286047001.1,N
1512639615.8,286046996.7,N
1512639635.6,286046999.6,N
1512639655.5,286046995.3,N
1512639675.3,286046996.4,N
1512639695.1,286046996.2,N
1512639715.9,286046991.8,Y
1512639735.7,286046994.2,P
1512639755.5,286046993.1,P
1512639775.4,286046993.1,P
1512639795.2,286046990.1,Y
1512639815.0,286046997.3,P
1512639815.9,286046997.3,N
1512639835.8,286046999.2,N
1512639855.6,286047001.5,N
1512639875.4,286047007.4,Y
1512639895.3,286047006.6,P
1512639915.1,286047008.6,N
1512639916.0,286047008.6,N
1512639935.8,286047008.2,N
1512639955.7,286047009.0,N
1512639975.5,286047006.6,N
1512639995.3,286047006.5,N
1512640015.2,286047005.5,N
1512640035.9,286047003.7,N
1512640055.7,286046999.1,N
1512640075.5,286046994.9,N
1512640095.4,286046993.9,N
1512640115.2,286046997.6,N
1512640135.0,286046999.4,N
1512640135.9,286046999.4,N
1512640155.8,286046998.6,N
1512640175.6,286046999.0,N
1512640195.4,286046997.9,N
1512640215.3,286046998.5,N
1512640235.1,286047000.0,N
1512640236.0,286047000.0,N
1512640255.8,286046998.5,N
1512640275.7,286046999.5,N
1512640295.5,286046995.4,N
1512640315.3,286046996.7,N
1512640335.2,286046998.0,N
1512640355.9,286046996.8,N
1512640375.7,286046995.0,N
1512640395.6,286046994.9,N
1512640415.4,286046997.0,N
1512640435.2,286047002.5,N
1512640455.0,286047005.6,N
1512640455.9,286047005.6,N
1512640475.8,286047004.6,N
1512640495.6,286047010.1,N
1512640515.4,286047010.9,N
1512640535.3,286047011.2,N
1512640555.1,286047009.9,N
1512640575.8,286047010.2,N
1512640595.7,286047006.4,N
1512640615.5,286047003.3,N
1512640635.3,286047002.4,N
1512640655.2,286047000.3,N
1512640675.9,286047000.9,N
1512640695.7,286046998.6,N
1512640715.6,286047002.4,N
1512640735.4,286046999.9,N
1512640755.2,286046999.9,N
1512640775.1,286046999.2,N
1512640776.0,286046999.2,N
1512640795.8,286047000.7,N
